This is the latest recevied weather packets stored in our database for station/object LX0APE-4. If no packets are shown the sender has not sent any weather packets the latest 10 day(s).
| Time | Temp. | Humidity | Pressure | Rain* | Wind** | Luminosity | Snow |
|---|---|---|---|---|---|---|---|
| 1776872543 | 23.89° C | 21% | 5019.7 hPa | 0 mm | - | - | - |
| 1776872243 | 23.89° C | 20% | 5019.7 hPa | 0 mm | - | - | - |
| 1776871943 | 23.89° C | 20% | 5019.6 hPa | 0 mm | - | - | - |
| 1776871643 | 23.33° C | 21% | 5019.5 hPa | 0 mm | - | - | - |
| 1776871343 | 22.78° C | 21% | 5019.6 hPa | 0 mm | - | - | - |
| 1776871043 | 22.78° C | 21% | 5019.5 hPa | 0 mm | - | - | - |
| 1776870743 | 22.78° C | 21% | 5019.6 hPa | 0 mm | - | - | - |
| 1776870443 | 23.33° C | 20% | 5019.4 hPa | 0 mm | - | - | - |
| 1776870143 | 23.33° C | 21% | 5019.5 hPa | 0 mm | - | - | - |
| 1776869843 | 23.89° C | 21% | 5019.4 hPa | 0 mm | - | - | - |
| 1776869543 | 23.33° C | 21% | 5019.6 hPa | 0 mm | - | - | - |
| 1776869243 | 22.78° C | 22% | 5019.5 hPa | 0 mm | - | - | - |
| 1776868943 | 22.78° C | 22% | 5019.4 hPa | 0 mm | - | - | - |
| 1776868643 | 22.22° C | 22% | 5019.5 hPa | 0 mm | - | - | - |
| 1776868343 | 22.78° C | 21% | 5019.5 hPa | 0 mm | - | - | - |
| 1776868043 | 22.78° C | 23% | 5019.6 hPa | 0 mm | - | - | - |
| 1776867743 | 22.22° C | 22% | 5019.4 hPa | 0 mm | - | - | - |
| 1776867443 | 22.78° C | 22% | 5019.7 hPa | 0 mm | - | - | - |
| 1776867143 | 22.78° C | 24% | 5019.6 hPa | 0 mm | - | - | - |
| 1776866843 | 21.67° C | 24% | 5019.6 hPa | 0 mm | - | - | - |
| 1776866543 | 21.11° C | 24% | 5019.6 hPa | 0 mm | - | - | - |
| 1776866243 | 21.11° C | 23% | 5019.7 hPa | 0 mm | - | - | - |
* Rain latest hour (hover to see other rain measurements)
** Current wind speed in m/s (hover to see current wind gust speed)